Regional Weather Roundup
Issued by NWS

Home | Current Version | Previous Version | Graphics & Text | Print | Product List | Glossary On
Versions: 1 2 3 4 5 6 7 8 9 10 11 12 13 14 15 16 17 18 19 20 21 22 23 24 25 26 27 28 29 30 31 32 33 34 35 36 37 38 39 40 41 42 43 44 45 46 47 48 49 50
000
ASUS45 KPSR 272300
RWRAZ

PRELIMINARY ARIZONA REGIONAL HOURLY WEATHER ROUNDUP
NATIONAL WEATHER SERVICE PHOENIX AZ
400 PM MST SAT DEC 27 2014

NOTE: FAIR INDICATES FEW OR NO CLOUDS BELOW 12,000 FEET WITH NO
SIGNIFICANT WEATHER AND/OR OBSTRUCTIONS TO VISIBILITY.

AZZ001>003-036-280000-
NORTHWEST ARIZONA

CITY           SKY/WX    TMP DP  RH WIND       PRES   REMARKS
KINGMAN        SUNNY     44   9  23 N13       30.27S
$$

AZZ004>008-015-016-018-280000-
NORTH CENTRAL ARIZONA

CITY           SKY/WX    TMP DP  RH WIND       PRES   REMARKS
GRAND CANYON   SUNNY     32   7  35 W7        30.22R WCI  26
PRESCOTT       SUNNY     40   8  26 CALM      30.23S
FLAGSTAFF      NOT AVBL
PAYSON         SUNNY     41   9  26 NE7       30.23R
PAGE           SUNNY     37   7  28 N5        30.29R WCI  33
$$

AZZ009>014-017-280000-
NORTHEAST ARIZONA

CITY           SKY/WX    TMP DP  RH WIND       PRES   REMARKS
WINSLOW        NOT AVBL
SAINT JOHNS    SUNNY     35   9  33 NE6       30.22R WCI  30
WINDOW ROCK    PTSUNNY   27  12  53 CALM      30.20R
SHOW LOW       SUNNY     30   5  34 N7        30.22S WCI  23
$$

AZZ023-280000-
GREATER PHOENIX AREA

CITY           SKY/WX    TMP DP  RH WIND       PRES   REMARKS
PHOENIX        SUNNY     59  16  18 W10       30.23R
GLENDALE       MOSUNNY   59  18  20 SW8       30.26S
LUKE AFB       SUNNY     58  16  19 W5        30.24S
DEER VALLEY    SUNNY     57  10  15 W6        30.23R
SCOTTSDALE     SUNNY     57  11  16 CALM      30.24R
MESA-GATEWAY   SUNNY     57  16  19 NW7       30.25R
$$

AZZ027-028-280000-
SOUTHWEST MARICOPA COUNTY AND PINAL COUNTY

CITY           SKY/WX    TMP DP  RH WIND       PRES   REMARKS
CASA GRANDE    SUNNY     55  19  24 CALM      30.25R
$$

AZZ503-504-507>509-280000-
SOUTHEAST ARIZONA

CITY           SKY/WX    TMP DP  RH WIND       PRES   REMARKS
TUCSON         SUNNY     48  18  30 NW7       30.23R
DAVIS-MONTHAN  SUNNY     50  19  28 N8        30.20S
NOGALES        SUNNY     49  13  23 NW12G18   30.17R
SIERRA VISTA   SUNNY     44   8  23 NE7       30.18R
SAFFORD        SUNNY     48   9  20 SW3       30.21R
$$

AZZ020-021-025-026-031-280000-
SOUTHWEST ARIZONA

CITY           SKY/WX    TMP DP  RH WIND       PRES   REMARKS
YUMA           MOSUNNY  N/A N/A N/A NE6       30.30F
$$

CAZ031-033-041-043-047-048-061-280000-
SOUTHERN CALIFORNIA

CITY           SKY/WX    TMP DP  RH WIND       PRES   REMARKS
DOWNTOWN L.A.  SUNNY     62  21  20 W5        30.27F
L.A. AIRPORT   MOSUNNY   59  29  31 SW10      30.28S
SAN DIEGO      PTSUNNY   61  27  27 W8        30.28F
BURBANK        SUNNY     60  19  20 S6        30.26S
ONTARIO        MOSUNNY   60  17  18 W7        30.27R
RIVERSIDE      SUNNY     60   8  12 NE9       30.28R
PALM SPRINGS   SUNNY     60   5  11 VRB6      30.33S
EL CENTRO NAS  MOSUNNY   60   9  13 N7        30.31F
IMPERIAL       SUNNY     60   9  13 N6        30.31F
BLYTHE         SUNNY     59  10  14 N8        30.30F
$$

NVZ020-UTZ003-280000-
SOUTHERN NEVADA-UTAH

CITY           SKY/WX    TMP DP  RH WIND       PRES   REMARKS
LAS VEGAS      NOT AVBL
SALT LAKE CITY CLOUDY    27  14  58 S8        30.32R WCI  19
$$

NMZ009-TXZ055-280000-
NEW MEXICO-WEST TEXAS

CITY           SKY/WX    TMP DP  RH WIND       PRES   REMARKS
ALBUQUERQUE    PTCLDY    37  11  34 W9        30.20S WCI  30
EL PASO        MOSUNNY   46  29  51 N8        30.17R
$$


........................KEY........................
SKY/WX - SKY CONDITION/WEATHER
TMP    - TEMPERATURE IN FAHRENHEIT
DP     - DEW POINT IN FAHRENHEIT
RH     - RELATIVE HUMIDITY IN PERCENT
WIND   - DIRECTION AND SPEED IN MILES PER HOUR (MPH)
VRB    - VARIABLE WIND DIRECTION
PRES   - MEAN SEA LEVEL PRESSURE IN INCHES OF MERCURY
         F - FALLING PRESSURE   R - RISING PRESSURE
         S - STEADY PRESSURE
VSB    - VISIBILITY IN MILES
HX     - HEAT INDEX IN FAHRENHEIT
WCI    - WIND CHILL INDEX IN FAHRENHEIT
TC     - TEMPERATURE IN CELSIUS WHICH IS ALSO KNOWN AS
         TEMPERATURE IN CENTIGRADE
AFB    - AIR FORCE BASE
         LUKE AFB IS LUKE AIR FORCE BASE
         DAVIS-MONTHAN IS DAVIS-MONTHAN AIR FORCE BASE
NAS    - NAVAL AIR STATION
         EL CENTRO NAS IS EL CENTRO NAVAL AIR STATION
N/A    - NOT AVAILABLE


USA.gov is the U.S. government's official web portal to all federal, state and local government web resources and services.